K4FB Weather Reports


Display with metric or nautical units.
time (UTC)temp
F
wind
direction
speed
MPH
gust
MPH
rain 1hr
in
rain 24hr
in
rain mn
in
humidity
%
barometer
mb
20260504023504 70 73 2.0 9.0 0.00 0.12 0.12 75 1018.0
20260504023017 70 63 3.0 10.0 0.00 0.12 0.12 75 1018.1
20260504022509 70 71 3.0 10.0 0.00 0.12 0.12 75 1018.0
20260504022010 70 41 5.0 11.0 0.00 0.12 0.12 75 1017.9
20260504021508 70 42 3.0 11.0 0.00 0.12 0.12 75 1017.9
20260504021004 70 81 3.0 9.0 0.00 0.12 0.12 75 1017.8
20260504020503 70 82 4.0 9.0 0.00 0.12 0.12 75 1017.7
20260504020014 70 86 2.0 9.0 0.00 0.12 0.12 75 1017.7
20260504015506 70 76 2.0 9.0 0.00 0.12 0.12 75 1017.7
20260504015007 70 37 4.0 9.0 0.00 0.12 0.12 74 1017.6
20260504014522 71 20 3.0 10.0 0.00 0.12 0.12 74 1017.6
20260504014003 71 90 2.0 15.0 0.00 0.12 0.12 74 1017.8
20260504013506 71 349 3.0 15.0 0.00 0.12 0.12 73 1017.8
20260504013033 71 35 3.0 9.0 0.00 0.12 0.12 74 1017.6
20260504012510 71 76 3.0 9.0 0.00 0.12 0.12 73 1017.6
20260504012004 71 77 4.0 10.0 0.00 0.12 0.12 73 1017.4
20260504011523 71 21 3.0 10.0 0.00 0.12 0.12 73 1017.4
20260504011009 71 71 3.0 13.0 0.00 0.12 0.12 72 1017.5
20260504010503 71 80 3.0 13.0 0.00 0.12 0.12 72 1017.4
20260504010015 71 78 6.0 13.0 0.00 0.12 0.12 72 1017.4
20260504005504 71 63 4.0 11.0 0.00 0.12 0.12 72 1017.3
20260504005008 71 98 4.0 11.0 0.00 0.12 0.12 72 1017.1
20260504004515 71 78 5.0 11.0 0.00 0.12 0.12 71 1017.1
20260504004009 71 107 2.0 11.0 0.00 0.12 0.12 71 1017.1
20260504003510 72 61 4.0 11.0 0.00 0.12 0.12 72 1016.8
20260504003013 72 90 4.0 11.0 0.00 0.12 0.12 72 1016.8
20260504002508 72 72 3.0 9.0 0.00 0.12 0.12 73 1016.8
20260504002010 72 71 4.0 9.0 0.00 0.12 0.12 75 1016.8
20260504001528 73 73 3.0 10.0 0.00 0.12 0.12 72 1016.8
20260504001004 73 59 5.0 10.0 0.00 0.12 0.12 72 1016.7
20260504000506 73 32 4.0 10.0 0.00 0.12 0.12 71 1016.8
20260504000051 73 94 2.0 8.0 0.00 0.12 0.12 71 1016.6
20260503235512 74 49 3.0 10.0 0.00 0.12 0.12 71 1016.6
20260503235004 74 35 5.0 11.0 0.00 0.12 0.12 69 1016.6
20260503234516 74 55 5.0 11.0 0.00 0.12 0.12 70 1016.4
20260503234007 75 82 4.0 11.0 0.00 0.12 0.12 69 1016.4
20260503233505 75 55 4.0 12.0 0.00 0.12 0.12 69 1016.5
20260503233020 75 111 5.0 14.0 0.00 0.12 0.12 67 1016.5
20260503232511 75 76 6.0 14.0 0.00 0.12 0.12 67 1016.4
20260503232008 75 63 6.0 13.0 0.00 0.13 0.12 67 1016.3
20260503231518 76 104 7.0 13.0 0.00 0.13 0.12 67 1016.4
20260503231010 76 42 6.0 11.0 0.00 0.13 0.12 65 1016.3
20260503230511 76 46 3.0 11.0 0.00 0.14 0.12 66 1016.4
20260503230018 76 96 4.0 11.0 0.00 0.14 0.12 65 1016.4
20260503225509 76 53 4.0 11.0 0.00 0.14 0.12 66 1016.4
20260503225009 76 79 3.0 10.0 0.00 0.14 0.12 66 1016.2
20260503224529 76 81 3.0 10.0 0.00 0.15 0.12 66 1016.3
20260503224009 76 49 4.0 10.0 0.00 0.15 0.12 65 1016.3
20260503223504 76 34 4.0 10.0 0.00 0.16 0.12 64 1016.5
20260503223022 76 45 3.0 9.0 0.00 0.16 0.12 64 1016.4
20260503222503 77 96 2.0 10.0 0.00 0.16 0.12 66 1016.4
20260503222006 77 125 3.0 10.0 0.00 0.16 0.12 65 1016.3
20260503221524 77 71 2.0 10.0 0.00 0.16 0.12 64 1016.2
20260503221014 77 89 6.0 10.0 0.00 0.16 0.12 64 1016.4
20260503220506 77 86 4.0 9.0 0.00 0.16 0.12 63 1016.2
20260503220025 77 54 2.0 9.0 0.00 0.16 0.12 64 1016.3
20260503215512 77 42 3.0 9.0 0.00 0.16 0.12 64 1016.3
20260503215008 77 70 4.0 11.0 0.00 0.16 0.12 63 1016.2
20260503214523 78 69 5.0 11.0 0.00 0.16 0.12 60 1016.2
20260503214010 78 67 4.0 11.0 0.00 0.16 0.12 64 1016.2
20260503213514 78 28 5.0 10.0 0.00 0.16 0.12 62 1016.1
20260503213021 78 57 3.0 12.0 0.00 0.16 0.12 61 1016.2
20260503212506 79 72 6.0 12.0 0.00 0.16 0.12 60 1016.1
20260503212005 79 35 5.0 10.0 0.00 0.16 0.12 63 1016.2
20260503211521 79 86 4.0 11.0 0.00 0.16 0.12 62 1016.2
20260503211006 80 89 5.0 11.0 0.00 0.16 0.12 60 1016.3
20260503210514 80 74 2.0 11.0 0.00 0.16 0.12 61 1016.1
20260503210023 80 38 7.0 11.0 0.00 0.16 0.12 60 1016.3
20260503205508 80 40 5.0 11.0 0.00 0.17 0.12 61 1016.4
20260503205008 81 26 4.0 11.0 0.00 0.17 0.12 58 1016.4
20260503204528 81 72 4.0 11.0 0.00 0.17 0.12 59 1016.3
20260503204009 81 22 4.0 9.0 0.00 0.18 0.12 59 1016.4
20260503203509 81 103 5.0 10.0 0.00 0.21 0.12 59 1016.6
20260503203039 81 89 5.0 11.0 0.00 0.21 0.12 59 1016.6
20260503202511 80 117 6.0 11.0 0.00 0.21 0.12 61 1016.5
20260503202010 79 74 3.0 10.0 0.00 0.21 0.12 64 1016.5
20260503201517 79 46 4.0 12.0 0.00 0.21 0.12 60 1016.6
20260503201006 79 44 4.0 12.0 0.00 0.21 0.12 60 1016.7
20260503200507 80 57 3.0 10.0 0.00 0.21 0.12 61 1016.6
20260503200024 79 12 6.0 10.0 0.00 0.21 0.12 64 1016.8
20260503195508 78 56 4.0 11.0 0.00 0.21 0.12 63 1016.9
20260503195009 78 58 4.0 11.0 0.00 0.21 0.12 63 1016.8
20260503194519 78 107 4.0 11.0 0.00 0.21 0.12 63 1016.9
20260503194009 79 45 6.0 12.0 0.00 0.21 0.12 63 1016.9
20260503193511 79 69 6.0 15.0 0.00 0.21 0.12 63 1017.0
20260503193028 79 51 7.0 15.0 0.00 0.21 0.12 61 1017.2
20260503192507 80 31 5.0 13.0 0.00 0.21 0.12 62 1017.3
20260503192010 80 77 5.0 13.0 0.00 0.21 0.12 63 1017.4
20260503191529 80 27 7.0 14.0 0.00 0.21 0.12 62 1017.3
20260503191010 81 76 3.0 14.0 0.00 0.21 0.12 60 1017.5
20260503190515 81 50 4.0 12.0 0.00 0.21 0.12 62 1017.6
20260503190021 80 70 6.0 14.0 0.00 0.21 0.12 63 1017.6
20260503185507 80 71 3.0 14.0 0.00 0.21 0.12 64 1017.8
20260503185011 80 87 5.0 13.0 0.00 0.21 0.12 65 1017.8
20260503184526 79 32 2.0 12.0 0.00 0.21 0.12 66 1017.9
20260503184012 79 9 4.0 13.0 0.00 0.21 0.12 64 1017.9
20260503183511 80 45 7.0 13.0 0.00 0.21 0.12 61 1018.0
20260503183029 80 117 4.0 14.0 0.00 0.21 0.12 65 1018.1
20260503182516 79 29 6.0 15.0 0.00 0.21 0.12 67 1018.1
20260503182012 78 105 8.0 15.0 0.00 0.21 0.12 67 1018.1
20260503181527 78 57 6.0 12.0 0.00 0.21 0.12 65 1018.1
20260503181010 78 62 6.0 15.0 0.00 0.21 0.12 66 1018.4
20260503180510 78 130 6.0 15.0 0.00 0.21 0.12 64 1018.4
20260503180031 78 48 3.0 13.0 0.00 0.21 0.12 67 1018.5
20260503175507 78 42 7.0 13.0 0.00 0.21 0.12 65 1018.6
20260503175007 78 81 5.0 14.0 0.00 0.21 0.12 64 1018.5
20260503174521 78 24 6.0 14.0 0.00 0.21 0.12 66 1018.7
20260503174010 78 24 7.0 14.0 0.00 0.21 0.12 67 1018.6
20260503173040 77 61 3.0 14.0 0.00 0.21 0.12 68 1018.7
20260503172512 76 106 8.0 14.0 0.00 0.21 0.12 69 1018.8
20260503172010 76 30 4.0 14.0 0.00 0.21 0.12 72 1018.8
20260503171535 76 32 7.0 14.0 0.00 0.21 0.12 68 1018.7
20260503171003 76 43 4.0 13.0 0.00 0.21 0.12 71 1018.7
20260503170506 76 34 7.0 16.0 0.00 0.21 0.12 69 1018.7
20260503151007 69 53 6.0 11.0 0.00 0.21 0.12 81 1019.2
20260503150503 68 48 5.0 13.0 0.00 0.21 0.12 82 1019.4
20260503131009 65 21 4.0 12.0 0.00 0.21 0.12 89 1017.8
20260503130505 65 11 6.0 12.0 0.00 0.21 0.12 89 1017.9
20260503110508 64 352 2.0 9.0 0.00 0.21 0.12 94 1016.6
20260503090503 64 352 5.0 10.0 0.04 0.21 0.12 94 1015.9
20260503081518 65 352 3.0 9.0 0.01 0.17 0.08 93 1015.7
20260503071510 65 21 5.0 9.0 0.01 0.16 0.07 93 1015.5
20260503070503 66 346 4.0 11.0 0.02 0.16 0.07 93 1015.5
20260503054518 70 237 0.0 4.0 0.02 0.14 0.05 94 1015.2
20260503053504 70 230 2.0 5.0 0.02 0.14 0.05 94 1015.5
20260503053019 70 236 1.0 4.0 0.02 0.14 0.05 94 1015.5
20260503052005 70 236 2.0 6.0 0.02 0.13 0.04 94 1015.6
20260503051524 70 229 3.0 6.0 0.02 0.13 0.04 94 1015.6
20260503051007 70 228 2.0 6.0 0.03 0.13 0.04 94 1015.6
20260503050504 70 225 2.0 4.0 0.03 0.13 0.04 94 1015.6
20260503050010 70 235 1.0 3.0 0.04 0.13 0.04 93 1015.6
20260503044525 70 239 2.0 5.0 0.03 0.12 0.03 94 1015.7
20260503044003 70 235 2.0 5.0 0.03 0.12 0.03 94 1015.6
20260503043021 70 244 1.0 6.0 0.03 0.12 0.03 94 1015.5
20260503042504 70 225 2.0 6.0 0.03 0.12 0.03 93 1015.6
20260503042008 70 217 3.0 6.0 0.02 0.11 0.02 93 1015.6
20260503041525 70 205 3.0 9.0 0.02 0.11 0.02 93 1015.6
20260503040504 70 238 3.0 6.0 0.01 0.10 0.01 92 1015.3
20260503040031 70 234 3.0 5.0 0.00 0.09 0.00 92 1015.2
20260503035505 70 229 2.0 5.0 0.00 0.09 0.09 92 1015.1
20260503034513 70 244 1.0 5.0 0.00 0.09 0.09 92 1014.6
20260503033015 70 226 3.0 5.0 0.00 0.09 0.09 92 1014.2
20260503032508 71 230 0.0 5.0 0.00 0.09 0.09 92 1014.1
20260503031512 71 223 2.0 6.0 0.00 0.09 0.09 91 1014.1
20260503031006 71 248 3.0 7.0 0.00 0.09 0.09 91 1014.1
20260503030027 71 208 3.0 8.0 0.00 0.09 0.09 91 1014.2
20260503025506 71 215 4.0 10.0 0.00 0.09 0.09 91 1014.3
20260503025007 71 185 4.0 10.0 0.00 0.09 0.09 91 1014.3